sat.trackr.live / text

‹ back to catalog

BEIJING-3B

NORAD 53587 · 2022-103A

PAYLOAD ACTIVE UNKNOWN

§ Identity

Operator
Country
PRC
Launch date
2022-08-24
Launch site
TAISC
Launch vehicle
Mass (kg)
RCS (m²)

External: N2YO · Heavens-Above · Gunter

§ Orbital elements

Epoch: 2026-05-25T04:55:57.119808Z

Period
96.83 min
Inclination
97.8012°
Eccentricity
0.0026149
Mean motion
14.87126364 rev/d
Perigee alt
588.7 km
Apogee alt
625.2 km
Semi-major
6,985.1 km
B*
1.2775e-4
RAAN
223.0184°
Arg perigee
127.9994°
Mean anomaly
232.3589°
Rev number
20,367

§ Raw data

BEIJING-3B1 53587U 22103A   26145.20552222  .00001099  00000+0  12775-3 0  99972 53587  97.8012 223.0184 0026149 127.9994 232.3589 14.87126364203672

JSON: /api/v1/satellites/53587 · /tle

For live sub-satellite position, see the globe view (requires WebGL).

§ Visibility from observer

Set your observer location to see the next 7 days of passes ≥ 10°. The values pass through the URL so the page stays shareable.

No JS? Fill the form by hand. The geolocation button needs JavaScript.